Location: Warner Observatory
(35.1353°N, 89.5455°W)
Time: 10:34:49
(UTC-05:00)

Amateur Radio Satellites - All Passes

Search period start: 27 April 2015 10:04
Search period end: 28 April 2015 10:04
Location: Warner Observatory, 35.1353°N, 89.5455°W

Satellite Date Start Highest point End Downlink Frequencies (MHz)
Time Altitude Azimuth
ANTELSAT 27 Apr 10:08:22 10:12:11 28° 71° (ENE) 10:16:10 437.575/2403.000
Oscar 11 27 Apr 10:14:41 10:18:51 45° 99° (E) 10:23:00 145.826/435.025
SEEDS 27 Apr 10:16:22 10:20:27 47° 285° (WNW) 10:24:28 437.485
GOMX 1 27 Apr 10:16:23 10:21:09 35° 287° (WNW) 10:26:01 467.674
ZACube-1 27 Apr 10:19:42 10:23:41 29° 95° (E) 10:27:39 437.345
QB50P2 27 Apr 10:21:42 10:24:25 17° 69° (ENE) 10:27:18 145.880/145.840
CANX-2 27 Apr 10:28:17 10:31:52 26° 288° (WNW) 10:35:21 2200.000
AAUSAT CUBESAT 2 27 Apr 10:29:10 10:33:12 48° 285° (WNW) 10:37:11 437.432
ISS 27 Apr 10:33:47 10:36:37 28° 132° (SE) 10:39:30 145.825
HO-68 27 Apr 10:34:05 10:40:58 49° 291° (WNW) 10:47:45 435.675
Cosmos 2491 27 Apr 10:37:09 10:46:00 77° 265° (W) 10:54:48 435.465 / 435.565
CUTE 1.7 + AOD 2 27 Apr 10:37:17 10:40:42 23° 289° (WNW) 10:43:59 437.475
NANOSAT C BR1 27 Apr 10:37:46 10:41:12 25° 71° (ENE) 10:44:44 145.865
BRITE-PL 27 Apr 10:39:31 10:42:34 15° 292° (WNW) 10:45:27 437.365/2234.400
POPSAT HIP 1 27 Apr 10:41:39 10:45:14 28° 72° (ENE) 10:48:54 437.405
SO-50 27 Apr 10:43:45 10:47:53 35° 113° (ESE) 10:52:14 436.795
DOVE 4 27 Apr 10:44:39 10:49:02 28° 289° (WNW) 10:53:24 437.250
AISAT 27 Apr 10:49:21 10:51:57 16° 92° (E) 10:54:43 437.250
DX 1 27 Apr 10:51:26 10:55:27 36° 98° (E) 10:59:29 434.975-435.025
AIST 1 27 Apr 10:55:47 10:57:25 12° 71° (ENE) 10:59:18
BUGSAT 1 27 Apr 10:56:47 11:00:11 28° 72° (ENE) 11:03:40 437.445
TIGRISAT 27 Apr 10:56:55 11:01:25 85° 258° (WSW) 11:06:03 435.000
UNISAT 6 27 Apr 11:02:04 11:06:34 72° 258° (WSW) 11:11:13 437.425
CUBEBUG 2 27 Apr 11:02:18 11:07:01 59° 285° (WNW) 11:11:40 437.445
DUCHIFAT 1 27 Apr 11:10:22 11:14:29 63° 76° (ENE) 11:18:40 145.980
POLYITAN 1 27 Apr 11:11:35 11:15:46 69° 76° (ENE) 11:20:00 437.675
CINEMA 3 27 Apr 11:15:54 11:19:58 24° 290° (WNW) 11:23:55 145.822/145.860
UWE-3 27 Apr 11:24:50 11:29:14 40° 287° (WNW) 11:33:34 435.000/436.395/437.385
DELFI C3 27 Apr 11:28:25 11:31:55 28° 288° (WNW) 11:35:19 145.870
QB50P1 27 Apr 11:29:01 11:33:13 73° 259° (W) 11:37:27 145.935-145.965
FUNcube-1 27 Apr 11:29:26 11:33:50 45° 286° (WNW) 11:38:09 145.935
AIST 2 27 Apr 11:29:44 11:31:56 14° 47° (NE) 11:34:15 435.215
UKube-1 27 Apr 11:31:41 11:36:01 79° 284° (WNW) 11:40:20 .
ESTCUBE 1 27 Apr 11:33:45 11:37:28 26° 95° (E) 11:41:16 437.505/2401.250
HUMSAT D 27 Apr 11:35:41 11:40:02 80° 283° (WNW) 11:44:19 437.325/437.525
YUBILEINY 27 Apr 11:37:25 11:46:11 64° 280° (W) 11:54:55 435.215
ANTELSAT 27 Apr 11:45:17 11:48:58 24° 266° (W) 11:52:37 437.575/2403.000
BEESAT 3 27 Apr 11:50:42 11:54:48 88° 58° (ENE) 11:58:50 437.485
Oscar 11 27 Apr 11:52:26 11:54:40 14° 292° (WNW) 11:56:42 145.826/435.025
BEESAT 2 27 Apr 11:54:29 11:58:37 79° 60° (ENE) 12:02:40 435.950
ZACube-1 27 Apr 11:56:13 11:59:54 23° 290° (WNW) 12:03:27 437.345
QB50P2 27 Apr 11:56:17 12:00:06 33° 263° (W) 12:03:55 145.880/145.840
CUBEBUG 1 27 Apr 12:05:37 12:09:55 54° 100° (E) 12:14:13 437.445
VELOX 1 27 Apr 12:05:41 12:10:07 69° 284° (WNW) 12:14:32 145.980
50 SAT 27 Apr 12:06:20 12:10:17 53° 285° (WNW) 12:14:10 437.505
ISS 27 Apr 12:10:17 12:12:59 23° 327° (NNW) 12:15:40 145.825
NANOSAT C BR1 27 Apr 12:13:45 12:17:02 21° 266° (W) 12:20:14 145.865
Oscar 19 27 Apr 12:15:16 12:16:21 11° 64° (ENE) 12:17:47 437.125/150
POPSAT HIP 1 27 Apr 12:18:04 12:21:09 19° 266° (W) 12:24:08 437.405
RS-15 27 Apr 12:22:06 12:27:29 16° 102° (ESE) 12:33:48 29.354- 29.394
AISAT 27 Apr 12:24:33 12:28:44 40° 287° (WNW) 12:32:54 437.250
SO-50 27 Apr 12:24:44 12:28:33 24° 310° (NW) 12:32:23 436.795
DX 1 27 Apr 12:28:31 12:31:27 17° 291° (WNW) 12:34:14 434.975-435.025
AIST 1 27 Apr 12:31:20 12:35:23 43° 267° (W) 12:39:26
BUGSAT 1 27 Apr 12:32:57 12:35:44 18° 267° (W) 12:38:24 437.445
Cosmos 2491 27 Apr 12:38:45 12:41:39 11° 281° (W) 12:43:42 435.465 / 435.565
TISAT 1 27 Apr 12:41:28 12:45:01 26° 96° (E) 12:48:37 437.305
Cosmos 2504 27 Apr 12:59:51 13:08:03 45° 89° (E) 13:16:18 435.465 / 435.565
AIST 2 27 Apr 13:06:46 13:10:54 53° 244° (WSW) 13:14:56 435.215
ESTCUBE 1 27 Apr 13:10:37 13:14:16 24° 290° (WNW) 13:17:49 437.505/2401.250
SPROUT 27 Apr 13:18:45 13:23:07 83° 281° (W) 13:27:26 437.525
Gurwin Techsat 1B 27 Apr 13:32:53 13:36:10 17° 66° (ENE) 13:39:40 435.225
ITUPSAT 1 27 Apr 13:41:44 13:44:53 18° 93° (E) 13:48:11 437.325
CUBEBUG 1 27 Apr 13:44:08 13:45:52 12° 293° (WNW) 13:47:22 437.445
Oscar 19 27 Apr 13:49:57 13:55:06 81° 256° (WSW) 14:00:19 437.125/150
AO-7 27 Apr 14:09:02 14:12:16 13° 53° (NE) 14:16:03 29.400- 29.500
BEESAT 27 Apr 14:10:19 14:14:43 38° 98° (E) 14:19:09 436.000
SWISSCUBE 27 Apr 14:13:04 14:17:37 45° 99° (E) 14:22:10 437.505
TISAT 1 27 Apr 14:17:20 14:20:41 22° 289° (WNW) 14:23:56 437.305
RS-15 27 Apr 14:27:37 14:38:29 85° 119° (ESE) 14:49:37 29.354- 29.394
ITAMSAT 1 27 Apr 14:29:01 14:34:10 72° 75° (ENE) 14:39:21 435.822/435.867
HORYU 2 27 Apr 14:51:43 14:54:36 18° 68° (ENE) 14:57:39 437.375
Cosmos 2504 27 Apr 14:53:32 15:01:37 37° 286° (WNW) 15:09:27 435.465 / 435.565
VERMONT LUNAR 27 Apr 15:03:47 15:06:43 28° 148° (SSE) 15:09:41 437.305
KKS-1 27 Apr 15:10:18 15:14:10 29° 96° (E) 15:18:06 437.445
Gurwin Techsat 1B 27 Apr 15:10:36 15:15:46 52° 260° (W) 15:20:57 435.225
ITUPSAT 1 27 Apr 15:18:32 15:22:58 39° 288° (WNW) 15:27:21 437.325
JAS-2 27 Apr 15:35:58 15:43:21 47° 71° (ENE) 15:50:35 435.910
BEESAT 27 Apr 15:48:56 15:52:20 19° 292° (WNW) 15:55:35 436.000
SWISSCUBE 27 Apr 15:52:08 15:55:10 17° 293° (WNW) 15:58:00 437.505
PHONESAT 2.4 27 Apr 15:52:32 15:55:28 24° 146° (SE) 15:58:26 2401.200-2431.200
AO-7 27 Apr 15:55:38 16:03:49 70° 71° (ENE) 16:12:05 29.400- 29.500
STARS 27 Apr 15:59:32 16:03:58 66° 101° (E) 16:08:23 437.465
GONETS M04 27 Apr 16:01:01 16:08:58 42° 89° (E) 16:17:08
ITAMSAT 1 27 Apr 16:12:55 16:14:18 11° 271° (W) 16:15:17 435.822/435.867
HORYU 2 27 Apr 16:26:49 16:30:59 37° 262° (W) 16:35:10 437.375
PCSat 27 Apr 16:32:58 16:36:56 21° 51° (NE) 16:41:02 145.827
VERMONT LUNAR 27 Apr 16:40:44 16:44:03 57° 342° (NNW) 16:47:24 437.305
RS-15 27 Apr 16:43:26 16:52:29 27° 322° (NW) 17:01:26 29.354- 29.394
KKS-1 27 Apr 16:47:09 16:50:42 22° 290° (WNW) 16:54:06 437.445
DANDE 27 Apr 16:56:21 16:59:03 24° 88° (E) 17:02:27 436.750
ISS 27 Apr 17:04:21 17:05:53 13° 26° (NNE) 17:07:30 145.825
Cosmos 2499 27 Apr 17:17:23 17:23:23 22° 84° (E) 17:29:44 435.465 / 435.565
JAS-2 27 Apr 17:21:28 17:28:28 34° 266° (W) 17:35:12 435.910
MOZHAYETS 4 27 Apr 17:28:15 17:32:49 63° 100° (E) 17:37:19
PHONESAT 2.4 27 Apr 17:29:57 17:33:30 69° 340° (NNW) 17:37:06 2401.200-2431.200
CUTE-I 27 Apr 17:35:20 17:39:26 24° 68° (ENE) 17:43:41 437.470
STARS 27 Apr 17:39:19 17:39:56 10° 294° (WNW) 17:40:16 437.465
CUSAT 1 27 Apr 17:44:39 17:48:07 46° 285° (WNW) 17:52:40 437.405
Cubesat XI-IV 27 Apr 17:45:08 17:49:40 30° 70° (ENE) 17:54:18 437.490
AO-7 27 Apr 17:51:13 17:57:22 21° 267° (W) 18:03:08 29.400- 29.500
GONETS M04 27 Apr 17:57:53 18:05:55 37° 287° (WNW) 18:13:50
PCSat 27 Apr 18:15:27 18:20:41 51° 248° (WSW) 18:25:53 145.827
VERMONT LUNAR 27 Apr 18:18:49 18:21:52 31° 359° (N) 18:24:57 437.305
ISS 27 Apr 18:39:24 18:42:40 85° 223° (SW) 18:45:54 145.825
DANDE 27 Apr 18:40:26 18:42:33 14° 296° (WNW) 18:44:48 436.750
PRISM 27 Apr 18:48:35 18:51:06 16° 93° (E) 18:53:46 437.425
RS-15 27 Apr 19:06:38 19:10:36 12° 357° (N) 19:14:32 29.354- 29.394
Cosmos 2499 27 Apr 19:07:02 19:15:55 71° 279° (W) 19:24:33 435.465 / 435.565
MOZHAYETS 4 27 Apr 19:08:09 19:09:34 11° 294° (WNW) 19:10:41
PHONESAT 2.4 27 Apr 19:08:46 19:12:04 33° 357° (N) 19:15:23 2401.200-2431.200
CUBESAT XI-V 27 Apr 19:10:48 19:15:21 59° 100° (E) 19:19:55 437.345
M-CUBED/EXP-1 PRIME 27 Apr 19:11:46 19:15:42 50° 103° (ESE) 19:19:19 437.505
CUTE-I 27 Apr 19:14:26 19:19:21 37° 262° (W) 19:24:13 437.470
HO-68 27 Apr 19:14:44 19:18:27 16° 59° (ENE) 19:22:33 435.675
SO-50 27 Apr 19:18:49 19:22:00 17° 46° (NE) 19:25:19 436.795
Cubesat XI-IV 27 Apr 19:25:07 19:29:45 29° 264° (W) 19:34:17 437.490
CANX-2 27 Apr 19:44:36 19:45:53 11° 67° (ENE) 19:47:25 2200.000
GOMX 1 27 Apr 19:45:44 19:48:03 15° 68° (ENE) 19:50:37 467.674
AUBIESAT-1 27 Apr 19:52:04 19:56:00 53° 290° (WNW) 19:59:36 437.475
CUTE 1.7 + AOD 2 27 Apr 19:52:47 19:54:38 13° 68° (ENE) 19:56:43 437.475
VERMONT LUNAR 27 Apr 19:56:26 19:59:44 49° 15° (NNE) 20:03:02 437.305
BRITE-PL 27 Apr 20:08:02 20:11:57 43° 74° (ENE) 20:16:02 437.365/2234.400
STRAND 1 27 Apr 20:10:38 20:15:44 76° 283° (WNW) 20:20:49 437.568
DOVE 4 27 Apr 20:10:41 20:13:38 19° 69° (ENE) 20:16:49 437.250
PRISM 27 Apr 20:23:01 20:26:41 31° 288° (WNW) 20:30:17 437.425
COMPASS 1 27 Apr 20:36:24 20:39:57 27° 72° (ENE) 20:43:35 437.405
CINEMA 3 27 Apr 20:38:09 20:41:11 19° 69° (ENE) 20:44:28 145.822/145.860
PHONESAT 2.4 27 Apr 20:47:15 20:50:44 46° 14° (NNE) 20:54:12 2401.200-2431.200
M-CUBED/EXP-1 PRIME 27 Apr 20:48:49 20:50:04 11° 300° (WNW) 20:51:07 437.505
CUBESAT XI-V 27 Apr 20:50:31 20:52:21 12° 293° (WNW) 20:53:55 437.345
SO-50 27 Apr 20:58:06 21:03:00 60° 244° (WSW) 21:07:47 436.795
HO-68 27 Apr 20:58:08 21:05:21 90° 253° (WSW) 21:12:36 435.675
SEEDS 27 Apr 21:04:45 21:09:00 77° 77° (ENE) 21:13:18 437.485
Oscar 11 27 Apr 21:06:47 21:10:16 24° 71° (ENE) 21:13:50 145.826/435.025
Cosmos 2499 27 Apr 21:07:26 21:10:50 12° 299° (WNW) 21:13:25 435.465 / 435.565
ZACube-1 27 Apr 21:13:47 21:16:19 16° 68° (ENE) 21:19:05 437.345
AAUSAT CUBESAT 2 27 Apr 21:16:20 21:20:32 72° 77° (ENE) 21:24:45 437.432
CANX-2 27 Apr 21:17:11 21:21:23 54° 260° (W) 21:25:39 2200.000
RS-15 27 Apr 21:21:03 21:29:19 23° 32° (NNE) 21:38:15 29.354- 29.394
GOMX 1 27 Apr 21:21:59 21:25:53 38° 263° (W) 21:29:57 467.674
CUTE 1.7 + AOD 2 27 Apr 21:26:03 21:30:11 47° 261° (W) 21:34:22 437.475
VERMONT LUNAR 27 Apr 21:34:01 21:37:09 36° 211° (SSW) 21:40:16 437.305
Cosmos 2491 27 Apr 21:39:48 21:46:16 25° 85° (E) 21:53:07 435.465 / 435.565
DX 1 27 Apr 21:44:38 21:47:51 21° 70° (ENE) 21:51:12 434.975-435.025
DOVE 4 27 Apr 21:47:26 21:51:12 31° 265° (W) 21:55:07 437.250
BRITE-PL 27 Apr 21:49:20 21:50:54 11° 271° (W) 21:52:12 437.365/2234.400
YUBILEINY 27 Apr 21:51:41 22:00:14 56° 78° (ENE) 22:08:43 435.215
CUBEBUG 2 27 Apr 21:57:07 22:01:27 79° 78° (ENE) 22:06:00 437.445
DELFI C3 27 Apr 22:11:57 22:16:02 74° 258° (WSW) 22:20:07 145.870
COMPASS 1 27 Apr 22:12:24 22:15:39 20° 266° (W) 22:18:47 437.405
CINEMA 3 27 Apr 22:14:17 22:18:12 32° 265° (W) 22:22:13 145.822/145.860
O/OREOS (USA 219) 27 Apr 22:18:05 22:22:39 68° 291° (WNW) 22:27:12 437.305
UWE-3 27 Apr 22:18:19 22:22:39 72° 258° (WSW) 22:27:09 435.000/436.395/437.385
FUNcube-1 27 Apr 22:21:33 22:25:53 86° 258° (WSW) 22:30:21 145.935
UKube-1 27 Apr 22:23:15 22:27:28 57° 75° (ENE) 22:31:42 .
HUMSAT D 27 Apr 22:24:14 22:28:15 46° 74° (ENE) 22:32:23 437.325/437.525
PHONESAT 2.4 27 Apr 22:25:33 22:29:00 45° 209° (SSW) 22:32:25 2401.200-2431.200
ESTCUBE 1 27 Apr 22:31:12 22:34:05 18° 69° (ENE) 22:37:08 437.505/2401.250
Oscar 11 27 Apr 22:42:47 22:46:22 24° 265° (W) 22:49:55 145.826/435.025
50 SAT 27 Apr 22:48:08 22:52:01 52° 75° (ENE) 22:55:57 437.505
ZACube-1 27 Apr 22:48:16 22:52:22 40° 262° (W) 22:56:33 437.345
HO-68 27 Apr 22:50:51 22:54:07 13° 272° (W) 22:56:46 435.675
TIGRISAT 27 Apr 22:52:30 22:56:24 26° 95° (E) 23:00:20 435.000
UNISAT 6 27 Apr 22:57:43 23:01:53 31° 96° (E) 23:05:59 437.425
CUBEBUG 1 27 Apr 22:59:03 23:02:46 30° 72° (ENE) 23:06:33 437.445
VELOX 1 27 Apr 22:59:59 23:04:20 70° 76° (ENE) 23:08:44 145.980
DUCHIFAT 1 27 Apr 23:00:04 23:02:02 13° 91° (E) 23:04:14 145.980
POLYITAN 1 27 Apr 23:01:43 23:04:05 15° 92° (E) 23:06:38 437.675
Cosmos 2504 27 Apr 23:02:05 23:02:33 10° 59° (ENE) 23:03:43 435.465 / 435.565
QB50P1 27 Apr 23:17:59 23:21:22 23° 95° (E) 23:24:49 145.935-145.965
AISAT 27 Apr 23:18:51 23:23:13 67° 259° (W) 23:27:36 437.250
DX 1 27 Apr 23:20:15 23:23:59 27° 264° (W) 23:27:40 434.975-435.025
TISAT 1 27 Apr 23:32:13 23:34:09 13° 68° (ENE) 23:36:18 437.305
RS-15 27 Apr 23:32:37 23:44:16 74° 58° (ENE) 23:56:25 29.354- 29.394
Cosmos 2491 27 Apr 23:33:59 23:42:35 60° 281° (W) 23:51:13 435.465 / 435.565
ANTELSAT 27 Apr 23:39:28 23:44:11 87° 283° (WNW) 23:48:48 437.575/2403.000
JUGNU 27 Apr 23:43:13 23:45:16 12° 167° (SSE) 23:47:26 437.505
QB50P2 27 Apr 23:44:21 23:48:32 49° 99° (E) 23:52:43 145.880/145.840
YUBILEINY 27 Apr 23:49:32 23:56:36 27° 275° (W) 00:03:19 435.215
NANOSAT C BR1 28 Apr 00:00:40 00:04:58 76° 102° (ESE) 00:09:15 145.865
HUMSAT D 28 Apr 00:02:33 00:04:20 12° 270° (W) 00:05:53 437.325/437.525
POPSAT HIP 1 28 Apr 00:04:59 00:09:19 86° 102° (ESE) 00:13:37 437.405
ESTCUBE 1 28 Apr 00:06:31 00:10:43 37° 262° (W) 00:14:54 437.505/2401.250
SPROUT 28 Apr 00:09:43 00:13:49 48° 75° (ENE) 00:17:58 437.525
BUGSAT 1 28 Apr 00:16:36 00:20:47 80° 102° (ESE) 00:25:00 437.445
TIGRISAT 28 Apr 00:29:09 00:33:05 26° 290° (WNW) 00:36:52 435.000
DUCHIFAT 1 28 Apr 00:34:03 00:38:07 42° 286° (WNW) 00:42:09 145.980
UNISAT 6 28 Apr 00:34:50 00:38:29 22° 290° (WNW) 00:41:59 437.425
CUBEBUG 1 28 Apr 00:36:01 00:39:11 19° 266° (W) 00:42:15 437.445
POLYITAN 1 28 Apr 00:36:09 00:40:12 39° 287° (WNW) 00:44:12 437.675
ITUPSAT 1 28 Apr 00:46:18 00:49:00 16° 67° (ENE) 00:51:54 437.325
Cosmos 2504 28 Apr 00:49:57 00:57:51 74° 82° (E) 01:05:12 435.465 / 435.565
QB50P1 28 Apr 00:53:38 00:57:12 25° 289° (WNW) 01:00:41 145.935-145.965
AIST 1 28 Apr 00:57:04 01:01:20 63° 278° (W) 01:05:36
TISAT 1 28 Apr 01:05:38 01:09:36 42° 261° (W) 01:13:36 437.305
BEESAT 28 Apr 01:13:54 01:18:02 31° 71° (ENE) 01:22:16 436.000
SWISSCUBE 28 Apr 01:16:39 01:20:59 36° 72° (ENE) 01:25:22 437.505
QB50P2 28 Apr 01:22:04 01:24:03 13° 292° (WNW) 01:25:49 145.880/145.840
JUGNU 28 Apr 01:29:47 01:33:35 17° 176° (S) 01:37:24 437.505
BEESAT 3 28 Apr 01:40:52 01:44:32 34° 114° (ESE) 01:48:17 437.485
SRMSAT 28 Apr 01:45:14 01:47:53 13° 169° (SSE) 01:50:38 437.500
BEESAT 2 28 Apr 01:45:36 01:49:13 31° 113° (ESE) 01:52:55 435.950
RS-15 28 Apr 01:46:29 01:55:58 28° 254° (WSW) 02:05:09 29.354- 29.394
SPROUT 28 Apr 01:48:43 01:50:15 11° 270° (W) 01:51:31 437.525
Oscar 19 28 Apr 02:04:56 02:09:55 47° 99° (E) 02:14:55 437.125/150
KKS-1 28 Apr 02:06:15 02:09:13 18° 69° (ENE) 02:12:21 437.445
GONETS M04 28 Apr 02:16:38 02:21:41 17° 64° (ENE) 02:27:16
ITUPSAT 1 28 Apr 02:21:54 02:26:33 48° 261° (W) 02:31:11 437.325
CUSAT 1 28 Apr 02:42:03 02:46:50 18° 65° (ENE) 02:52:16 437.405
ITAMSAT 1 28 Apr 02:45:29 02:50:06 33° 97° (E) 02:54:46 435.822/435.867
Cosmos 2504 28 Apr 02:45:41 02:50:21 17° 278° (W) 02:54:26 435.465 / 435.565
BEESAT 28 Apr 02:52:06 02:55:55 23° 265° (W) 02:59:39 436.000
STARS 28 Apr 02:53:27 02:57:29 38° 73° (ENE) 03:01:35 437.465
SWISSCUBE 28 Apr 02:55:27 02:58:58 20° 267° (W) 03:02:20 437.505
AIST 2 28 Apr 03:01:16 03:05:29 70° 117° (ESE) 03:09:45 435.215
JUGNU 28 Apr 03:18:18 03:21:55 16° 186° (S) 03:25:30 437.505
BEESAT 3 28 Apr 03:19:40 03:22:40 19° 310° (NW) 03:25:36 437.485
BEESAT 2 28 Apr 03:24:14 03:27:24 20° 309° (NW) 03:30:30 435.950
Gurwin Techsat 1B 28 Apr 03:29:53 03:35:13 82° 101° (E) 03:40:33 435.225
SRMSAT 28 Apr 03:32:30 03:36:21 18° 178° (S) 03:40:11 437.500
DANDE 28 Apr 03:36:39 03:43:42 36° 73° (ENE) 03:51:29 436.750
KKS-1 28 Apr 03:41:36 03:45:39 34° 263° (W) 03:49:41 437.445
Oscar 19 28 Apr 03:45:20 03:48:57 19° 293° (WNW) 03:52:23 437.125/150
AO-7 28 Apr 04:01:41 04:08:23 28° 95° (E) 04:15:22 29.400- 29.500
GONETS M04 28 Apr 04:10:59 04:19:54 87° 264° (W) 04:28:43
HORYU 2 28 Apr 04:21:00 04:25:23 52° 100° (E) 04:29:44 437.375
CUSAT 1 28 Apr 04:22:32 04:30:33 89° 82° (E) 04:38:53 437.405
ITAMSAT 1 28 Apr 04:25:14 04:29:29 25° 291° (WNW) 04:33:37 435.822/435.867
MOZHAYETS 4 28 Apr 04:26:59 04:31:19 40° 73° (ENE) 04:35:41
STARS 28 Apr 04:31:24 04:34:08 16° 268° (W) 04:36:41 437.465
JAS-2 28 Apr 04:35:24 04:41:10 46° 97° (E) 04:46:24 435.910
AIST 2 28 Apr 04:42:52 04:44:36 12° 315° (NW) 04:46:09 435.215
Cosmos 2499 28 Apr 05:03:51 05:10:30 33° 73° (ENE) 05:16:55 435.465 / 435.565
AUBIESAT-1 28 Apr 05:04:33 05:06:01 12° 61° (ENE) 05:07:45 437.475
Gurwin Techsat 1B 28 Apr 05:12:57 05:14:36 11° 296° (WNW) 05:15:55 435.225
DANDE 28 Apr 05:19:31 05:27:06 48° 267° (W) 05:35:10 436.750
SRMSAT 28 Apr 05:21:28 05:24:49 15° 188° (S) 05:28:06 437.500
STRAND 1 28 Apr 05:48:05 05:49:40 12° 64° (ENE) 05:51:34 437.568
AO-7 28 Apr 05:53:31 06:01:38 58° 292° (WNW) 06:09:42 29.400- 29.500
M-CUBED/EXP-1 PRIME 28 Apr 05:55:55 06:00:29 45° 69° (ENE) 06:05:06 437.505
CUTE-I 28 Apr 05:57:26 05:58:52 11° 89° (E) 06:00:42 437.470
HORYU 2 28 Apr 05:59:27 06:01:37 13° 293° (WNW) 06:03:34 437.375
MOZHAYETS 4 28 Apr 06:05:44 06:08:45 16° 268° (W) 06:11:34
Cubesat XI-IV 28 Apr 06:06:40 06:09:32 15° 91° (E) 06:12:40 437.490
CUSAT 1 28 Apr 06:07:32 06:12:38 17° 274° (W) 06:17:20 437.405
CUBESAT XI-V 28 Apr 06:11:07 06:15:24 39° 73° (ENE) 06:19:43 437.345
GONETS M04 28 Apr 06:11:16 06:15:39 14° 280° (W) 06:19:20
JAS-2 28 Apr 06:21:21 06:25:53 22° 296° (WNW) 06:29:56 435.910
AUBIESAT-1 28 Apr 06:35:29 06:40:15 77° 254° (WSW) 06:45:04 437.475
O/OREOS (USA 219) 28 Apr 06:54:29 06:55:54 12° 55° (NE) 06:57:34 437.305
Cosmos 2499 28 Apr 06:56:50 07:03:43 38° 272° (W) 07:10:08 435.465 / 435.565
PRISM 28 Apr 07:09:21 07:13:31 69° 258° (WSW) 07:17:39 437.425
PCSat 28 Apr 07:11:01 07:15:45 33° 110° (ESE) 07:20:36 145.827
STRAND 1 28 Apr 07:23:15 07:28:20 74° 258° (WSW) 07:33:27 437.568
M-CUBED/EXP-1 PRIME 28 Apr 07:32:14 07:35:31 18° 264° (W) 07:38:38 437.505
CUTE-I 28 Apr 07:34:16 07:39:35 72° 285° (WNW) 07:44:53 437.470
Cubesat XI-IV 28 Apr 07:44:51 07:50:03 56° 287° (WNW) 07:55:15 437.490
CUBESAT XI-V 28 Apr 07:50:00 07:53:03 17° 268° (W) 07:55:53 437.345
AO-7 28 Apr 07:51:32 07:52:55 10° 309° (NW) 07:53:40 29.400- 29.500
BRITE-PL 28 Apr 08:15:13 08:19:20 23° 94° (E) 08:23:46 437.365/2234.400
HO-68 28 Apr 08:30:57 08:35:50 20° 92° (E) 08:41:01 435.675
O/OREOS (USA 219) 28 Apr 08:31:25 08:35:50 61° 253° (WSW) 08:40:13 437.305
SEEDS 28 Apr 08:53:44 08:56:17 16° 92° (E) 08:59:00 437.485
PCSat 28 Apr 08:54:26 08:59:11 30° 305° (NW) 09:03:53 145.827
YUBILEINY 28 Apr 09:01:03 09:01:05 10° 78° (ENE) 09:02:03 435.215
AAUSAT CUBESAT 2 28 Apr 09:04:14 09:06:24 14° 91° (E) 09:08:46 437.432
CANX-2 28 Apr 09:06:02 09:09:51 31° 96° (E) 09:13:39 2200.000
CUTE 1.7 + AOD 2 28 Apr 09:14:38 09:18:33 35° 97° (E) 09:22:28 437.475
GOMX 1 28 Apr 09:25:30 09:30:46 76° 100° (E) 09:36:16 467.674
ISS 28 Apr 09:41:03 09:42:36 13° 128° (SE) 09:44:17 145.825
DOVE 4 28 Apr 09:48:14 09:53:28 85° 102° (ESE) 09:58:48 437.250
TIGRISAT 28 Apr 09:49:03 09:51:51 17° 68° (ENE) 09:54:51 435.000
CUBEBUG 2 28 Apr 09:52:06 09:55:50 23° 93° (E) 09:59:38 437.445
BRITE-PL 28 Apr 09:53:02 09:57:55 40° 287° (WNW) 10:03:02 437.365/2234.400
UNISAT 6 28 Apr 09:54:15 09:57:27 20° 69° (ENE) 10:00:50 437.425
DELFI C3 28 Apr 09:55:38 09:58:24 18° 93° (E) 10:01:18 145.870
